Weather History for Paris, IL

Change the Weather History Date:

Tuesday, August 20, 2013

  Actual Average (KHUF) Record (KHUF)
Temperature  
Mean Temperature 72 °F 73 °F  
Max Temperature 86 °F 84 °F 95 °F (1962)
Min Temperature 58 °F 62 °F 49 °F (1992)
Degree Days  
Heating Degree Days 0 0  
Month to date heating degree days 0  
Since 1 June heating degree days 14  
Since 1 July heating degree days 1  
Cooling Degree Days 6 8  
Month to date cooling degree days 170  
Year to date cooling degree days 802  
Since 1 June cooling degree days 716  
Growing Degree Days 22 (Base 50)    
Moisture  
Dew Point 65 °F    
Average Humidity 83    
Maximum Humidity 99    
Minimum Humidity 54    
Precipitation  
Precipitation 0.00 in 0.12 in 1.13 in (2004)
Month to date precipitation 2.06  
Year to date precipitation 29.73  
Sea Level Pressure  
Sea Level Pressure 30.12 in    
Wind  
Wind Speed 0 mph (SE)    
Max Wind Speed 6 mph    
Max Gust Speed -    
Visibility 7 miles    
Events Fog    
T = Trace of Precipitation, MM = Missing Value Source: NWS Daily Summary

Daily Weather History Graph

Daily Weather History Graph

Search for Another Location

Airport:

Trip Planner

Search our weather history database for the weather conditions in past years. The results will help you decide how hot, cold, wet, or windy it might be!

Date:

Astronomy

Aug. 20, 2013 Rise Set
Actual Time 6:07 AM CDT 7:39 PM CDT
Civil Twilight 5:39 AM CDT 8:07 PM CDT
Nautical Twilight 5:05 AM CDT 8:41 PM CDT
Astronomical Twilight 4:28 AM CDT 9:18 PM CDT
Moon 7:10 PM CDT (8/20) 5:37 AM CDT (8/20)
Length of Visible Light 14h 28m
Length of Day
13h 31m
Full, 100% of the Moon is Illuminated
Aug 20
Full
Aug 20
Full
Aug 28
Last Quarter
Sep 5
New
Sep 12
First Quarter

Hourly Weather History & Observations

Time (CDT) Temp. Heat Index Dew Point Humidity Pressure Visibility Wind Dir Wind Speed Gust Speed Precip Events Conditions
12:15 AM 60.8 °F - 60.1 °F 97% 30.11 in 4.0 mi Calm Calm - N/A   Clear
12:35 AM 59.7 °F - 59.0 °F 97% 30.11 in 0.5 mi Calm Calm - N/A Fog Fog
12:55 AM 61.0 °F - 60.4 °F 98% 30.11 in 4.0 mi Calm Calm - N/A   Clear
1:15 AM 60.1 °F - 59.5 °F 98% 30.11 in 2.5 mi Calm Calm - N/A   Mist
1:35 AM 60.1 °F - 59.9 °F 99% 30.11 in 5.0 mi Calm Calm - N/A   Clear
1:55 AM 60.1 °F - 59.5 °F 98% 30.11 in 5.0 mi Calm Calm - N/A   Clear
2:15 AM 59.5 °F - 59.0 °F 98% 30.11 in 5.0 mi Calm Calm - N/A   Clear
2:35 AM 59.9 °F - 59.2 °F 97% 30.11 in 7.0 mi Calm Calm - N/A   Clear
2:55 AM 59.4 °F - 58.8 °F 98% 30.11 in 5.0 mi Calm Calm - N/A   Clear
3:15 AM 59.9 °F - 59.2 °F 97% 30.11 in 5.0 mi Calm Calm - N/A   Clear
3:35 AM 59.4 °F - 58.6 °F 97% 30.11 in 3.0 mi Calm Calm - N/A   Mist
3:55 AM 59.4 °F - 59.0 °F 99% 30.10 in 5.0 mi Calm Calm - N/A   Clear
4:15 AM 59.5 °F - 59.0 °F 98% 30.10 in 4.0 mi Calm Calm - N/A   Clear
4:35 AM 59.0 °F - 58.5 °F 98% 30.10 in 3.0 mi Calm Calm - N/A   Mist
4:55 AM 59.0 °F - 58.5 °F 98% 30.11 in 0.2 mi Calm Calm - N/A Fog Fog
5:15 AM 59.0 °F - 58.5 °F 98% 30.11 in 0.8 mi Calm Calm - N/A   Mist
5:35 AM 58.1 °F - 57.6 °F 98% 30.11 in 4.0 mi Calm Calm - N/A   Clear
5:55 AM 58.1 °F - 57.6 °F 98% 30.12 in 2.0 mi Calm Calm - N/A   Mist
6:15 AM 58.6 °F - 58.1 °F 98% 30.12 in 0.2 mi Calm Calm - N/A Fog Fog
6:35 AM 58.8 °F - 58.5 °F 99% 30.13 in 1.8 mi Calm Calm - N/A   Mist
6:55 AM 59.5 °F - 59.2 °F 99% 30.13 in 2.0 mi Calm Calm - N/A   Clear
7:15 AM 61.5 °F - 61.3 °F 99% 30.14 in 2.5 mi Calm Calm - N/A   Clear
7:35 AM 64.8 °F - 64.6 °F 99% 30.14 in 4.0 mi Calm Calm - N/A   Clear
7:55 AM 67.1 °F - 66.0 °F 96% 30.15 in 5.0 mi Calm Calm - N/A   Clear
8:15 AM 69.3 °F - 66.4 °F 91% 30.15 in 7.0 mi ESE 3.5 mph - N/A   Clear
8:35 AM 70.2 °F - 66.7 °F 89% 30.15 in 7.0 mi Calm Calm - N/A   Clear
8:55 AM 72.3 °F - 66.9 °F 83% 30.16 in 10.0 mi SE 3.5 mph - N/A   Clear
9:15 AM 73.9 °F - 67.8 °F 81% 30.16 in 10.0 mi SE 3.5 mph - N/A   Clear
9:35 AM 76.1 °F - 67.6 °F 75% 30.16 in 10.0 mi Calm Calm - N/A   Clear
9:55 AM 77.2 °F - 67.1 °F 71% 30.16 in 10.0 mi Calm Calm - N/A   Clear
10:15 AM 78.8 °F - 67.5 °F 68% 30.16 in 10.0 mi Calm Calm - N/A   Clear
10:35 AM 79.9 °F - 67.6 °F 66% 30.16 in 10.0 mi Calm Calm - N/A   Clear
10:55 AM 80.4 °F 82.7 °F 66.9 °F 63% 30.16 in 7.0 mi Calm Calm - N/A   Clear
11:15 AM 81.5 °F 83.9 °F 67.1 °F 61% 30.16 in 10.0 mi Calm Calm - N/A   Clear
11:35 AM 82.2 °F 85.1 °F 68.2 °F 62% 30.15 in 7.0 mi Calm Calm - N/A   Clear
11:55 AM 82.6 °F 85.7 °F 68.4 °F 62% 30.15 in 10.0 mi Calm Calm - N/A   Mostly Cloudy
12:15 PM 81.7 °F 84.5 °F 68.0 °F 63% 30.15 in 10.0 mi Calm Calm - N/A   Mostly Cloudy
12:35 PM 82.9 °F 85.8 °F 67.6 °F 60% 30.14 in 10.0 mi Calm Calm - N/A   Mostly Cloudy
12:55 PM 83.7 °F 87.2 °F 68.9 °F 61% 30.13 in 10.0 mi SE 5.8 mph - N/A   Mostly Cloudy
1:15 PM 84.0 °F 86.8 °F 67.5 °F 57% 30.13 in 10.0 mi SE 3.5 mph - N/A   Scattered Clouds
1:35 PM 84.4 °F 87.3 °F 67.6 °F 57% 30.12 in 10.0 mi Calm Calm - N/A   Clear
1:55 PM 84.6 °F 87.6 °F 67.8 °F 57% 30.12 in 10.0 mi SSE 4.6 mph - N/A   Clear
2:15 PM 83.1 °F 86.3 °F 68.5 °F 61% 30.11 in 10.0 mi Calm Calm - N/A   Mostly Cloudy
2:35 PM 85.1 °F 88.5 °F 68.2 °F 57% 30.11 in 10.0 mi Calm Calm - N/A   Scattered Clouds
2:55 PM 84.4 °F 88.2 °F 68.9 °F 60% 30.10 in 10.0 mi SSE 5.8 mph - N/A   Scattered Clouds
3:15 PM 85.1 °F 87.9 °F 67.1 °F 55% 30.10 in 10.0 mi Calm Calm - N/A   Scattered Clouds
3:35 PM 84.7 °F 87.6 °F 67.3 °F 56% 30.09 in 10.0 mi Calm Calm - N/A   Scattered Clouds
3:55 PM 85.6 °F 88.5 °F 67.5 °F 54% 30.09 in 10.0 mi SSW 3.5 mph - N/A   Scattered Clouds
4:15 PM 83.7 °F 86.5 °F 67.5 °F 58% 30.09 in 10.0 mi ESE 4.6 mph - N/A   Mostly Cloudy
4:35 PM 81.1 °F 83.7 °F 67.3 °F 63% 30.09 in 10.0 mi Calm Calm - N/A   Scattered Clouds
4:55 PM 80.6 °F 83.2 °F 67.8 °F 65% 30.09 in 10.0 mi ESE 3.5 mph - N/A   Scattered Clouds
5:15 PM 79.3 °F - 68.2 °F 69% 30.08 in 10.0 mi Calm Calm - N/A   Scattered Clouds
5:35 PM 79.2 °F - 70.2 °F 74% 30.08 in 10.0 mi Calm Calm - N/A   Scattered Clouds
5:55 PM 78.8 °F - 69.3 °F 72% 30.08 in 10.0 mi Calm Calm - N/A   Mostly Cloudy
6:15 PM 79.5 °F - 69.6 °F 72% 30.08 in 10.0 mi Calm Calm - N/A   Scattered Clouds
6:35 PM 79.5 °F - 69.8 °F 72% 30.08 in 10.0 mi North 3.5 mph - N/A   Clear
6:55 PM 77.7 °F - 69.8 °F 76% 30.08 in 10.0 mi Calm Calm - N/A   Clear
7:15 PM 75.4 °F - 69.6 °F 82% 30.09 in 10.0 mi Calm Calm - N/A   Scattered Clouds
7:35 PM 73.8 °F - 69.3 °F 86% 30.08 in 10.0 mi Calm Calm - N/A   Scattered Clouds
7:55 PM 71.6 °F - 68.4 °F 89% 30.09 in 10.0 mi Calm Calm - N/A   Clear
8:15 PM 69.8 °F - 67.3 °F 92% 30.09 in 7.0 mi Calm Calm - N/A   Clear
8:35 PM 68.2 °F - 66.2 °F 93% 30.09 in 7.0 mi Calm Calm - N/A   Clear
8:55 PM 68.4 °F - 67.1 °F 96% 30.10 in 7.0 mi Calm Calm - N/A   Clear
9:15 PM 66.9 °F - 65.5 °F 95% 30.10 in 5.0 mi Calm Calm - N/A   Clear
9:35 PM 68.4 °F - 66.7 °F 95% 30.11 in 7.0 mi Calm Calm - N/A   Clear
9:55 PM 67.3 °F - 66.0 °F 96% 30.10 in 7.0 mi Calm Calm - N/A   Clear
10:15 PM 66.6 °F - 65.3 °F 96% 30.11 in 7.0 mi Calm Calm - N/A   Clear
10:35 PM 65.7 °F - 64.6 °F 96% 30.11 in 5.0 mi Calm Calm - N/A   Clear
10:55 PM 64.6 °F - 63.7 °F 97% 30.11 in 4.0 mi Calm Calm - N/A   Clear
11:15 PM 63.9 °F - 63.0 °F 97% 30.11 in 5.0 mi Calm Calm - N/A   Clear
11:35 PM 64.0 °F - 63.0 °F 96% 30.12 in 7.0 mi Calm Calm - N/A   Clear
11:55 PM 67.3 °F - 66.4 °F 97% 30.12 in 7.0 mi SSE 3.5 mph - N/A   Clear